Weather History for KRNO - January, 2015

Change the Weather History Date:

Wednesday, January 14, 2015

  Actual Average Record
Temperature  
Mean Temperature 36 °F 35 °F  
Max Temperature 49 °F 45 °F 62 °F (2012)
Min Temperature 22 °F 25 °F -13 °F (1888)
Degree Days  
Heating Degree Days 29 30  
Month to date heating degree days 376 422  
Since 1 July heating degree days 1967 2446  
Cooling Degree Days 0 0  
Month to date cooling degree days 0 0  
Year to date cooling degree days 0 0  
Moisture  
Dew Point 23 °F    
Average Humidity 65    
Maximum Humidity 88    
Minimum Humidity 42    
Precipitation  
Precipitation 0.00 in 0.03 in 0.72 in (1909)
Month to date precipitation 0.00 0.52  
Year to date precipitation 0.00 0.52  
Snow  
Snow 0.00 in 0.20 in 6.80 in (1907)
Month to date snowfall 0.0 3.3  
Since 1 July snowfall 2.2 11.7  
Snow Depth 0.00 in    
Sea Level Pressure  
Sea Level Pressure 30.35 in    
Wind  
Wind Speed 2 mph (NNW)    
Max Wind Speed 9 mph    
Max Gust Speed 11 mph    
Visibility 10 miles    
Events      
T = Trace of Precipitation, MM = Missing Value Source: NWS Daily Summary

Daily Weather History Graph

Daily Weather History Graph

Search for Another Location

Airport or City:

Trip Planner

Search our weather history database for the weather conditions in past years. The results will help you decide how hot, cold, wet, or windy it might be!

Date:

Astronomy

Jan. 14, 2015 Rise Set
Actual Time 7:18 AM PST 4:58 PM PST
Civil Twilight 6:48 AM PST 5:28 PM PST
Nautical Twilight 6:15 AM PST 6:01 PM PST
Astronomical Twilight 5:43 AM PST 6:33 PM PST
Moon 1:17 AM PST (1/14) 12:15 PM PST (1/14)
Length of Visible Light 10h 39m
Length of Day
9h 40m
Last Quarter, 36% of the Moon is Illuminated
Jan 14
Last Quarter
Jan 20
New
Jan 26
First Quarter
Feb 3
Full
Feb 11
Last Quarter

Hourly Weather History & Observations

Time (PST) Temp. Windchill Dew Point Humidity Pressure Visibility Wind Dir Wind Speed Gust Speed Precip Events Conditions
12:55 AM 28.0 °F 22.8 °F 23.0 °F 81% 30.33 in 10.0 mi WNW 4.6 mph - N/A   Clear
1:55 AM 27.0 °F - 21.9 °F 81% 30.35 in 10.0 mi Calm Calm - N/A   Clear
2:55 AM 27.0 °F 21.6 °F 21.9 °F 81% 30.34 in 10.0 mi West 4.6 mph - N/A   Clear
3:55 AM 24.1 °F 19.7 °F 19.9 °F 84% 30.36 in 10.0 mi East 3.5 mph - N/A   Clear
4:55 AM 24.1 °F - 19.9 °F 84% 30.37 in 10.0 mi Calm Calm - N/A   Clear
5:55 AM 24.1 °F - 19.0 °F 81% 30.38 in 10.0 mi Calm Calm - N/A   Clear
6:55 AM 23.0 °F - 19.0 °F 85% 30.38 in 10.0 mi Calm Calm - N/A   Clear
7:55 AM 25.0 °F - 19.9 °F 81% 30.40 in 10.0 mi Calm Calm - N/A   Clear
8:55 AM 30.0 °F - 23.0 °F 75% 30.39 in 10.0 mi Calm Calm - N/A   Partly Cloudy
9:55 AM 33.1 °F - 24.1 °F 70% 30.40 in 10.0 mi Calm Calm - N/A   Partly Cloudy
10:55 AM 37.9 °F - 25.0 °F 60% 30.38 in 10.0 mi Calm Calm - N/A   Partly Cloudy
11:55 AM 41.0 °F - 25.0 °F 53% 30.33 in 10.0 mi Calm Calm - N/A   Partly Cloudy
12:55 PM 43.0 °F 41.3 °F 25.0 °F 49% 30.30 in 10.0 mi South 3.5 mph - N/A   Mostly Cloudy
1:55 PM 46.0 °F - 25.0 °F 44% 30.28 in 10.0 mi Calm Calm - N/A   Mostly Cloudy
2:55 PM 48.0 °F - 26.1 °F 42% 30.28 in 10.0 mi Calm Calm - N/A   Mostly Cloudy
3:55 PM 46.9 °F - 25.0 °F 42% 30.30 in 10.0 mi Calm Calm - N/A   Mostly Cloudy
4:55 PM 44.1 °F 40.1 °F 25.0 °F 47% 30.32 in 10.0 mi ESE 6.9 mph - N/A   Mostly Cloudy
5:55 PM 41.0 °F 39.0 °F 24.1 °F 51% 30.35 in 10.0 mi NNE 3.5 mph - N/A   Mostly Cloudy
6:55 PM 37.9 °F 35.5 °F 25.0 °F 60% 30.37 in 10.0 mi NNE 3.5 mph - N/A   Scattered Clouds
7:55 PM 37.0 °F - 26.1 °F 65% 30.37 in 10.0 mi Calm Calm - N/A   Scattered Clouds
8:55 PM 35.1 °F 32.2 °F 25.0 °F 67% 30.37 in 10.0 mi West 3.5 mph - N/A   Scattered Clouds
9:55 PM 30.9 °F - 24.1 °F 76% 30.38 in 10.0 mi Calm Calm - N/A   Scattered Clouds
10:55 PM 32.0 °F 27.5 °F 24.1 °F 73% 30.38 in 10.0 mi NW 4.6 mph - N/A   Scattered Clouds
11:55 PM 28.9 °F - 23.0 °F 78% 30.38 in 10.0 mi Calm Calm - N/A   Mostly Cloudy